| time (UTC) | temp F | wind direction | speed MPH | gust MPH | rain 1hr in | rain 24hr in | rain mn in | humidity % | barometer mb |
| 20260506211414 | 48 | 9 | 5.0 | 9.0 | 0.00 | 0.00 | 0.00 | 40 | 979.5 |
| 20260506210913 | 48 | 350 | 6.0 | 11.0 | 0.00 | 0.00 | 0.00 | 40 | 979.5 |
| 20260506210412 | 48 | 11 | 5.0 | 9.0 | 0.00 | 0.00 | 0.00 | 43 | 979.3 |
| 20260506205912 | 48 | 359 | 6.0 | 8.0 | 0.00 | 0.00 | 0.00 | 43 | 979.3 |
| 20260506204850 | 47 | 340 | 6.0 | 9.0 | 0.00 | 0.00 | 0.00 | 43 | 979.2 |
| 20260506204350 | 47 | 349 | 9.0 | 12.0 | 0.00 | 0.00 | 0.00 | 43 | 979.2 |
| 20260506203849 | 47 | 341 | 8.0 | 10.0 | 0.00 | 0.00 | 0.00 | 45 | 979.2 |
| 20260506203349 | 47 | 338 | 8.0 | 12.0 | 0.00 | 0.00 | 0.00 | 46 | 979.2 |
| 20260506202849 | 47 | 341 | 7.0 | 11.0 | 0.00 | 0.00 | 0.00 | 47 | 979.3 |
| 20260506202348 | 47 | 323 | 7.0 | 9.0 | 0.00 | 0.00 | 0.00 | 47 | 979.3 |
| 20260506201326 | 47 | 334 | 7.0 | 9.0 | 0.00 | 0.00 | 0.00 | 48 | 979.3 |
| 20260506200826 | 47 | 350 | 5.0 | 9.0 | 0.00 | 0.00 | 0.00 | 49 | 979.3 |
| 20260506195805 | 47 | 347 | 8.0 | 10.0 | 0.00 | 0.00 | 0.00 | 48 | 979.3 |
| 20260506195306 | 47 | 348 | 5.0 | 9.0 | 0.00 | 0.00 | 0.00 | 49 | 979.3 |
| 20260506194804 | 47 | 351 | 5.0 | 8.0 | 0.00 | 0.00 | 0.00 | 49 | 979.2 |
| 20260506194304 | 47 | 336 | 4.0 | 6.0 | 0.00 | 0.00 | 0.00 | 49 | 979.2 |
| 20260506193803 | 47 | 2 | 5.0 | 9.0 | 0.00 | 0.00 | 0.00 | 50 | 979.2 |
| 20260506193303 | 47 | 317 | 9.0 | 14.0 | 0.00 | 0.00 | 0.00 | 48 | 979.1 |
| 20260506192803 | 47 | 341 | 10.0 | 13.0 | 0.00 | 0.00 | 0.00 | 47 | 979.2 |
| 20260506192305 | 47 | 353 | 6.0 | 8.0 | 0.00 | 0.00 | 0.00 | 49 | 979.1 |
| 20260506191803 | 47 | 343 | 8.0 | 11.0 | 0.00 | 0.00 | 0.00 | 49 | 979.1 |
| 20260506191302 | 47 | 348 | 7.0 | 10.0 | 0.00 | 0.00 | 0.00 | 50 | 979.1 |
| 20260506190801 | 47 | 355 | 6.0 | 9.0 | 0.00 | 0.00 | 0.00 | 50 | 979.3 |
| 20260506190300 | 47 | 338 | 9.0 | 11.0 | 0.00 | 0.00 | 0.00 | 49 | 979.3 |
| 20260506185800 | 48 | 333 | 8.0 | 12.0 | 0.00 | 0.00 | 0.00 | 50 | 979.2 |
| 20260506185300 | 47 | 345 | 7.0 | 12.0 | 0.00 | 0.00 | 0.00 | 50 | 979.3 |
| 20260506184800 | 48 | 347 | 9.0 | 12.0 | 0.00 | 0.00 | 0.00 | 50 | 979.3 |
| 20260506184259 | 47 | 340 | 8.0 | 12.0 | 0.00 | 0.00 | 0.00 | 50 | 979.2 |
| 20260506183759 | 48 | 343 | 9.0 | 15.0 | 0.00 | 0.00 | 0.00 | 51 | 979.0 |
| 20260506183259 | 48 | 334 | 8.0 | 11.0 | 0.00 | 0.00 | 0.00 | 51 | 979.0 |
| 20260506182759 | 48 | 322 | 7.0 | 9.0 | 0.00 | 0.00 | 0.00 | 51 | 978.9 |
| 20260506182258 | 48 | 323 | 9.0 | 12.0 | 0.00 | 0.00 | 0.00 | 50 | 978.8 |
| 20260506181757 | 49 | 333 | 7.0 | 13.0 | 0.00 | 0.00 | 0.00 | 50 | 978.6 |
| 20260506181257 | 49 | 333 | 8.0 | 12.0 | 0.00 | 0.00 | 0.00 | 49 | 978.6 |
| 20260506180757 | 49 | 8 | 4.0 | 9.0 | 0.00 | 0.00 | 0.00 | 49 | 978.5 |
| 20260506180256 | 49 | 336 | 8.0 | 10.0 | 0.00 | 0.00 | 0.00 | 49 | 978.4 |
| 20260506175755 | 49 | 338 | 6.0 | 12.0 | 0.00 | 0.00 | 0.00 | 50 | 978.4 |
| 20260506175255 | 49 | 340 | 5.0 | 8.0 | 0.00 | 0.00 | 0.00 | 49 | 978.3 |
| 20260506174755 | 49 | 6 | 6.0 | 12.0 | 0.00 | 0.00 | 0.00 | 50 | 978.4 |
| 20260506174255 | 50 | 0 | 8.0 | 12.0 | 0.00 | 0.00 | 0.00 | 51 | 978.5 |
| 20260506172712 | 50 | 16 | 7.0 | 11.0 | 0.00 | 0.00 | 0.00 | 49 | 978.4 |
| 20260506172212 | 50 | 343 | 6.0 | 9.0 | 0.00 | 0.00 | 0.00 | 52 | 978.3 |
| 20260506171151 | 50 | 353 | 6.0 | 9.0 | 0.00 | 0.00 | 0.00 | 51 | 978.4 |
| 20260506170650 | 50 | 344 | 9.0 | 12.0 | 0.00 | 0.00 | 0.00 | 52 | 978.2 |
| 20260506170150 | 50 | 337 | 6.0 | 11.0 | 0.00 | 0.00 | 0.00 | 53 | 978.3 |
| 20260506165129 | 50 | 346 | 8.0 | 13.0 | 0.00 | 0.00 | 0.00 | 52 | 978.5 |
| 20260506164628 | 50 | 351 | 5.0 | 8.0 | 0.00 | 0.00 | 0.00 | 55 | 978.4 |
| 20260506164128 | 50 | 339 | 8.0 | 11.0 | 0.00 | 0.00 | 0.00 | 56 | 978.6 |
| 20260506163627 | 50 | 346 | 8.0 | 12.0 | 0.00 | 0.00 | 0.00 | 56 | 978.6 |
| 20260506163127 | 49 | 18 | 7.0 | 12.0 | 0.00 | 0.00 | 0.00 | 57 | 978.6 |
| 20260506162627 | 49 | 339 | 11.0 | 15.0 | 0.00 | 0.00 | 0.00 | 57 | 978.3 |
| 20260506162126 | 49 | 342 | 9.0 | 12.0 | 0.00 | 0.00 | 0.00 | 57 | 978.3 |
| 20260506161626 | 49 | 338 | 8.0 | 13.0 | 0.00 | 0.00 | 0.00 | 60 | 978.3 |
| 20260506160605 | 49 | 353 | 6.0 | 9.0 | 0.00 | 0.00 | 0.00 | 61 | 978.4 |
| 20260506160104 | 49 | 12 | 7.0 | 11.0 | 0.00 | 0.00 | 0.00 | 62 | 978.2 |
| 20260506155043 | 49 | 335 | 8.0 | 11.0 | 0.00 | 0.00 | 0.00 | 64 | 978.2 |
| 20260506154543 | 49 | 333 | 6.0 | 11.0 | 0.00 | 0.00 | 0.00 | 65 | 978.2 |
| 20260506154042 | 49 | 347 | 5.0 | 10.0 | 0.00 | 0.00 | 0.00 | 66 | 978.3 |
| 20260506153542 | 49 | 9 | 5.0 | 7.0 | 0.00 | 0.00 | 0.00 | 67 | 978.2 |
| 20260506153041 | 49 | 347 | 9.0 | 13.0 | 0.00 | 0.00 | 0.00 | 66 | 978.1 |
| 20260506152540 | 49 | 11 | 4.0 | 9.0 | 0.00 | 0.00 | 0.00 | 68 | 978.1 |
| 20260506152040 | 48 | 0 | 7.0 | 10.0 | 0.00 | 0.00 | 0.00 | 71 | 978.1 |
| 20260506151540 | 48 | 326 | 9.0 | 12.0 | 0.00 | 0.00 | 0.00 | 71 | 978.2 |
| 20260506151040 | 48 | 300 | 8.0 | 11.0 | 0.00 | 0.00 | 0.00 | 72 | 978.0 |
| 20260506150539 | 48 | 332 | 6.0 | 9.0 | 0.00 | 0.00 | 0.00 | 73 | 978.0 |
| 20260506145518 | 48 | 341 | 6.0 | 10.0 | 0.00 | 0.00 | 0.00 | 73 | 977.7 |
| 20260506145018 | 48 | 345 | 6.0 | 8.0 | 0.00 | 0.00 | 0.00 | 72 | 977.6 |
| 20260506143956 | 48 | 340 | 9.0 | 12.0 | 0.00 | 0.00 | 0.00 | 73 | 977.6 |
| 20260506143456 | 48 | 331 | 7.0 | 9.0 | 0.00 | 0.00 | 0.00 | 74 | 977.4 |
| 20260506142435 | 47 | 345 | 6.0 | 8.0 | 0.00 | 0.00 | 0.00 | 77 | 977.3 |
| 20260506141934 | 46 | 310 | 4.0 | 6.0 | 0.00 | 0.00 | 0.00 | 79 | 977.3 |
| 20260506141434 | 45 | 315 | 5.0 | 7.0 | 0.00 | 0.00 | 0.00 | 81 | 977.2 |
| 20260506140934 | 45 | 337 | 5.0 | 6.0 | 0.00 | 0.00 | 0.00 | 82 | 977.1 |
| 20260506140434 | 45 | 331 | 4.0 | 7.0 | 0.00 | 0.00 | 0.00 | 82 | 976.9 |
| 20260506135933 | 44 | 325 | 4.0 | 8.0 | 0.00 | 0.00 | 0.00 | 83 | 977.0 |
| 20260506134912 | 44 | 349 | 5.0 | 9.0 | 0.00 | 0.00 | 0.00 | 84 | 977.0 |
| 20260506134412 | 43 | 354 | 3.0 | 5.0 | 0.00 | 0.00 | 0.00 | 84 | 977.1 |
| 20260506133351 | 43 | 302 | 2.0 | 3.0 | 0.00 | 0.00 | 0.00 | 85 | 977.1 |
| 20260506132850 | 43 | 294 | 4.0 | 6.0 | 0.00 | 0.00 | 0.00 | 85 | 977.1 |
| 20260506132350 | 43 | 333 | 3.0 | 5.0 | 0.00 | 0.00 | 0.00 | 85 | 977.1 |
| 20260506131850 | 43 | 318 | 6.0 | 9.0 | 0.00 | 0.00 | 0.00 | 85 | 977.1 |
| 20260506131350 | 43 | 308 | 4.0 | 6.0 | 0.00 | 0.00 | 0.00 | 85 | 977.1 |
| 20260506130849 | 43 | 296 | 2.0 | 3.0 | 0.00 | 0.00 | 0.00 | 86 | 977.0 |
| 20260506130348 | 42 | 323 | 4.0 | 8.0 | 0.00 | 0.00 | 0.00 | 85 | 976.8 |
| 20260506125848 | 42 | 305 | 5.0 | 7.0 | 0.00 | 0.00 | 0.00 | 85 | 976.8 |
| 20260506125348 | 42 | 311 | 5.0 | 8.0 | 0.00 | 0.00 | 0.00 | 85 | 976.7 |
| 20260506124326 | 42 | 304 | 3.0 | 5.0 | 0.00 | 0.00 | 0.00 | 86 | 976.6 |
| 20260506123826 | 42 | 291 | 3.0 | 3.0 | 0.00 | 0.00 | 0.00 | 86 | 976.5 |
| 20260506123326 | 43 | 317 | 5.0 | 8.0 | 0.00 | 0.00 | 0.00 | 86 | 976.6 |
| 20260506122826 | 43 | 309 | 5.0 | 6.0 | 0.00 | 0.00 | 0.00 | 86 | 976.6 |
| 20260506122326 | 43 | 305 | 4.0 | 5.0 | 0.00 | 0.00 | 0.00 | 86 | 976.6 |
| 20260506121825 | 44 | 331 | 5.0 | 7.0 | 0.00 | 0.00 | 0.00 | 86 | 976.6 |
| 20260506120804 | 45 | 283 | 4.0 | 6.0 | 0.00 | 0.00 | 0.00 | 86 | 976.5 |
| 20260506120303 | 45 | 298 | 4.0 | 6.0 | 0.00 | 0.00 | 0.00 | 86 | 976.5 |
| 20260506115803 | 45 | 269 | 4.0 | 5.0 | 0.00 | 0.00 | 0.00 | 87 | 976.3 |
| 20260506114742 | 45 | 255 | 4.0 | 6.0 | 0.00 | 0.00 | 0.00 | 85 | 976.3 |
| 20260506114241 | 45 | 248 | 4.0 | 7.0 | 0.00 | 0.00 | 0.00 | 85 | 976.2 |
| 20260506113741 | 45 | 268 | 6.0 | 8.0 | 0.00 | 0.00 | 0.00 | 85 | 976.2 |
| 20260506113241 | 45 | 266 | 6.0 | 8.0 | 0.00 | 0.00 | 0.00 | 86 | 976.1 |
| 20260506112741 | 45 | 271 | 6.0 | 9.0 | 0.00 | 0.00 | 0.00 | 86 | 975.9 |
| 20260506111158 | 46 | 272 | 3.0 | 5.0 | 0.00 | 0.00 | 0.00 | 86 | 975.8 |
| 20260506110136 | 46 | 267 | 3.0 | 5.0 | 0.00 | 0.00 | 0.00 | 85 | 975.5 |
| 20260506105636 | 46 | 254 | 5.0 | 7.0 | 0.00 | 0.00 | 0.00 | 85 | 975.5 |
| 20260506105137 | 46 | 272 | 4.0 | 6.0 | 0.00 | 0.00 | 0.00 | 85 | 975.7 |
| 20260506104636 | 46 | 271 | 4.0 | 5.0 | 0.00 | 0.00 | 0.00 | 86 | 975.6 |
| 20260506103614 | 46 | 254 | 4.0 | 7.0 | 0.00 | 0.00 | 0.00 | 86 | 975.4 |
| 20260506103113 | 46 | 250 | 3.0 | 4.0 | 0.00 | 0.00 | 0.00 | 87 | 975.3 |
| 20260506102613 | 46 | 251 | 4.0 | 7.0 | 0.00 | 0.00 | 0.00 | 88 | 975.2 |
| 20260506101552 | 46 | 236 | 2.0 | 3.0 | 0.00 | 0.00 | 0.00 | 90 | 975.1 |
| 20260506101052 | 46 | 224 | 2.0 | 3.0 | 0.00 | 0.00 | 0.00 | 90 | 975.2 |
| 20260506100551 | 46 | 201 | 3.0 | 3.0 | 0.00 | 0.00 | 0.00 | 90 | 975.1 |
| 20260506100051 | 46 | 206 | 2.0 | 3.0 | 0.00 | 0.00 | 0.00 | 91 | 975.1 |
| 20260506095551 | 46 | 239 | 3.0 | 5.0 | 0.00 | 0.00 | 0.00 | 91 | 975.3 |
| 20260506095050 | 46 | 259 | 3.0 | 5.0 | 0.00 | 0.00 | 0.00 | 92 | 975.3 |
| 20260506094550 | 46 | 208 | 2.0 | 3.0 | 0.00 | 0.00 | 0.00 | 92 | 975.6 |
| 20260506094049 | 46 | 210 | 2.0 | 3.0 | 0.00 | 0.00 | 0.00 | 92 | 975.5 |
| 20260506093549 | 46 | 207 | 2.0 | 3.0 | 0.00 | 0.00 | 0.00 | 92 | 975.1 |
| 20260506093049 | 46 | 202 | 3.0 | 4.0 | 0.00 | 0.00 | 0.00 | 92 | 974.8 |
| 20260506092027 | 46 | 193 | 3.0 | 5.0 | 0.00 | 0.00 | 0.00 | 92 | 974.8 |
| 20260506091527 | 46 | 183 | 4.0 | 5.0 | 0.00 | 0.00 | 0.00 | 92 | 975.0 |
| 20260506091027 | 46 | 197 | 3.0 | 5.0 | 0.00 | 0.00 | 0.00 | 92 | 975.1 |
| 20260506090526 | 46 | 192 | 3.0 | 4.0 | 0.00 | 0.00 | 0.00 | 91 | 975.2 |
| 20260506090026 | 46 | 208 | 2.0 | 4.0 | 0.00 | 0.00 | 0.00 | 91 | 975.4 |
| 20260506085004 | 46 | 195 | 3.0 | 4.0 | 0.00 | 0.00 | 0.00 | 91 | 975.6 |
| 20260506083943 | 46 | 222 | 3.0 | 3.0 | 0.00 | 0.00 | 0.00 | 91 | 975.7 |
| 20260506083443 | 46 | 232 | 2.0 | 4.0 | 0.00 | 0.00 | 0.00 | 91 | 975.7 |
| 20260506082942 | 46 | 223 | 2.0 | 4.0 | 0.00 | 0.00 | 0.00 | 91 | 975.6 |
| 20260506082442 | 46 | 235 | 2.0 | 3.0 | 0.00 | 0.00 | 0.00 | 91 | 975.6 |
| 20260506081941 | 46 | 209 | 3.0 | 4.0 | 0.00 | 0.00 | 0.00 | 91 | 975.7 |
| 20260506081441 | 46 | 203 | 2.0 | 3.0 | 0.00 | 0.00 | 0.00 | 91 | 975.8 |
| 20260506073333 | 46 | 259 | 4.0 | 7.0 | 0.00 | 0.00 | 0.00 | 91 | 975.9 |
| 20260506072833 | 46 | 242 | 2.0 | 3.0 | 0.00 | 0.00 | 0.00 | 91 | 975.7 |
| 20260506072333 | 46 | 249 | 3.0 | 4.0 | 0.00 | 0.00 | 0.00 | 91 | 975.7 |
| 20260506071833 | 46 | 263 | 3.0 | 4.0 | 0.00 | 0.00 | 0.00 | 91 | 975.8 |
| 20260506071332 | 46 | 274 | 3.0 | 4.0 | 0.00 | 0.00 | 0.00 | 91 | 975.8 |
| 20260506070832 | 46 | 263 | 5.0 | 7.0 | 0.00 | 0.00 | 0.00 | 91 | 975.7 |
| 20260506070332 | 46 | 213 | 2.0 | 3.0 | 0.00 | 0.00 | 0.00 | 91 | 975.6 |
| 20260506062248 | 46 | 212 | 3.0 | 5.0 | 0.00 | 0.00 | 0.00 | 91 | 975.5 |
| 20260506061747 | 46 | 266 | 4.0 | 7.0 | 0.00 | 0.00 | 0.00 | 92 | 975.5 |
| 20260506061246 | 46 | 250 | 3.0 | 4.0 | 0.00 | 0.00 | 0.00 | 92 | 975.6 |
| 20260506060746 | 46 | 250 | 4.0 | 7.0 | 0.00 | 0.00 | 0.00 | 92 | 975.6 |
| 20260506060246 | 47 | 234 | 3.0 | 5.0 | 0.00 | 0.00 | 0.00 | 92 | 975.6 |
| 20260506051221 | 47 | 203 | 2.0 | 4.0 | 0.00 | 0.00 | 0.00 | 91 | 975.7 |
| 20260506050720 | 47 | 218 | 1.0 | 3.0 | 0.00 | 0.00 | 0.00 | 91 | 975.8 |
| 20260506044658 | 47 | 189 | 4.0 | 5.0 | 0.00 | 0.00 | 0.00 | 91 | 975.8 |
| 20260506044158 | 47 | 197 | 3.0 | 6.0 | 0.00 | 0.00 | 0.00 | 91 | 976.0 |
| 20260506043658 | 47 | 194 | 4.0 | 5.0 | 0.00 | 0.00 | 0.00 | 91 | 976.0 |
| 20260506042637 | 47 | 190 | 3.0 | 6.0 | 0.00 | 0.00 | 0.00 | 91 | 976.1 |
| 20260506042136 | 47 | 190 | 5.0 | 8.0 | 0.00 | 0.00 | 0.00 | 90 | 976.3 |
| 20260506041636 | 47 | 197 | 2.0 | 3.0 | 0.00 | 0.00 | 0.00 | 90 | 976.3 |
| 20260506040615 | 47 | 192 | 3.0 | 5.0 | 0.00 | 0.00 | 0.00 | 90 | 976.3 |
| 20260506040115 | 47 | 253 | 3.0 | 4.0 | 0.00 | 0.00 | 0.00 | 89 | 976.4 |
| 20260506035615 | 48 | 193 | 4.0 | 5.0 | 0.00 | 0.00 | 0.00 | 89 | 976.3 |
| 20260506035114 | 48 | 229 | 2.0 | 3.0 | 0.00 | 0.00 | 0.00 | 89 | 976.3 |
| 20260506034614 | 48 | 192 | 4.0 | 6.0 | 0.00 | 0.00 | 0.00 | 88 | 976.2 |
| 20260506034114 | 48 | 204 | 3.0 | 5.0 | 0.00 | 0.00 | 0.00 | 88 | 976.4 |
| 20260506033614 | 48 | 219 | 2.0 | 3.0 | 0.00 | 0.00 | 0.00 | 88 | 976.4 |
| 20260506033113 | 48 | 202 | 3.0 | 4.0 | 0.00 | 0.00 | 0.00 | 88 | 976.5 |
| 20260506032613 | 48 | 194 | 3.0 | 4.0 | 0.00 | 0.00 | 0.00 | 87 | 976.3 |
| 20260506032113 | 48 | 254 | 3.0 | 4.0 | 0.00 | 0.00 | 0.00 | 87 | 976.5 |
| 20260506031612 | 48 | 221 | 2.0 | 3.0 | 0.00 | 0.00 | 0.00 | 87 | 976.3 |
| 20260506030550 | 48 | 203 | 2.0 | 3.0 | 0.00 | 0.00 | 0.00 | 87 | 976.2 |
| 20260506030050 | 48 | 243 | 3.0 | 5.0 | 0.00 | 0.00 | 0.00 | 87 | 976.2 |
| 20260506025548 | 48 | 199 | 3.0 | 4.0 | 0.00 | 0.00 | 0.00 | 87 | 976.1 |
| 20260506025048 | 48 | 195 | 3.0 | 5.0 | 0.00 | 0.00 | 0.00 | 87 | 976.0 |
| 20260506024027 | 48 | 183 | 5.0 | 7.0 | 0.00 | 0.00 | 0.00 | 86 | 976.0 |
| 20260506023527 | 48 | 184 | 4.0 | 5.0 | 0.00 | 0.00 | 0.00 | 86 | 976.0 |
| 20260506023027 | 48 | 190 | 4.0 | 7.0 | 0.00 | 0.00 | 0.00 | 86 | 976.0 |
| 20260506022526 | 48 | 195 | 2.0 | 3.0 | 0.00 | 0.00 | 0.00 | 86 | 976.0 |
| 20260506022025 | 48 | 201 | 2.0 | 3.0 | 0.00 | 0.00 | 0.00 | 86 | 976.1 |
| 20260506021524 | 49 | 188 | 4.0 | 7.0 | 0.00 | 0.00 | 0.00 | 86 | 976.1 |
| 20260506021023 | 49 | 210 | 2.0 | 3.0 | 0.00 | 0.00 | 0.00 | 86 | 976.1 |
| 20260506020523 | 49 | 195 | 2.0 | 3.0 | 0.00 | 0.00 | 0.00 | 85 | 976.1 |
| 20260506020023 | 49 | 186 | 1.0 | 2.0 | 0.00 | 0.00 | 0.00 | 85 | 976.2 |
| 20260506015522 | 49 | 194 | 3.0 | 6.0 | 0.00 | 0.00 | 0.00 | 84 | 976.2 |
| 20260506015022 | 49 | 197 | 2.0 | 4.0 | 0.00 | 0.00 | 0.00 | 83 | 976.1 |
| 20260506014522 | 49 | 197 | 3.0 | 4.0 | 0.00 | 0.00 | 0.00 | 82 | 976.0 |
| 20260506014022 | 49 | 270 | 2.0 | 5.0 | 0.00 | 0.00 | 0.00 | 82 | 976.0 |
| 20260506013522 | 49 | 219 | 1.0 | 2.0 | 0.00 | 0.00 | 0.00 | 81 | 976.0 |
| 20260506013021 | 49 | 194 | 2.0 | 3.0 | 0.00 | 0.00 | 0.00 | 80 | 976.0 |
| 20260506012521 | 49 | 184 | 4.0 | 5.0 | 0.00 | 0.00 | 0.00 | 79 | 976.0 |
| 20260506012021 | 49 | 0 | 0.0 | 0.0 | 0.00 | 0.00 | 0.00 | 79 | 976.0 |
| 20260506010959 | 49 | 186 | 3.0 | 4.0 | 0.00 | 0.00 | 0.00 | 79 | 975.8 |
| 20260506010458 | 49 | 189 | 2.0 | 3.0 | 0.00 | 0.00 | 0.00 | 79 | 975.7 |
| 20260506005957 | 49 | 174 | 2.0 | 3.0 | 0.00 | 0.00 | 0.00 | 79 | 975.5 |
| 20260506005457 | 49 | 184 | 2.0 | 3.0 | 0.00 | 0.00 | 0.00 | 79 | 975.5 |
| 20260506004957 | 49 | 177 | 2.0 | 3.0 | 0.00 | 0.00 | 0.00 | 78 | 975.6 |
| 20260506003414 | 49 | 168 | 2.0 | 3.0 | 0.00 | 0.00 | 0.00 | 78 | 975.4 |
| 20260506002914 | 49 | 170 | 2.0 | 3.0 | 0.00 | 0.00 | 0.00 | 78 | 975.3 |
| 20260506002414 | 49 | 188 | 3.0 | 3.0 | 0.00 | 0.00 | 0.00 | 78 | 975.3 |
| 20260506001913 | 49 | 183 | 3.0 | 3.0 | 0.00 | 0.00 | 0.00 | 78 | 975.2 |
| 20260506000851 | 49 | 174 | 2.0 | 2.0 | 0.00 | 0.00 | 0.00 | 78 | 975.3 |
| 20260505235309 | 49 | 129 | 2.0 | 3.0 | 0.00 | 0.00 | 0.00 | 77 | 975.1 |
| 20260505234808 | 50 | 104 | 2.0 | 3.0 | 0.00 | 0.00 | 0.00 | 77 | 975.0 |
| 20260505234308 | 50 | 143 | 2.0 | 3.0 | 0.00 | 0.00 | 0.00 | 77 | 975.0 |
| 20260505233807 | 50 | 120 | 1.0 | 2.0 | 0.00 | 0.00 | 0.00 | 77 | 975.1 |
| 20260505232746 | 50 | 130 | 1.0 | 2.0 | 0.00 | 0.00 | 0.00 | 77 | 975.2 |
| 20260505230121 | 50 | 145 | 2.0 | 3.0 | 0.00 | 0.00 | 0.00 | 76 | 975.3 |
| 20260505225621 | 50 | 139 | 2.0 | 3.0 | 0.00 | 0.00 | 0.00 | 76 | 975.3 |
| 20260505225119 | 50 | 0 | 0.0 | 0.0 | 0.00 | 0.00 | 0.00 | 76 | 975.3 |
| 20260505223016 | 49 | 212 | 0.0 | 1.0 | 0.00 | 0.00 | 0.00 | 75 | 975.2 |
| 20260505222515 | 49 | 343 | 2.0 | 3.0 | 0.00 | 0.00 | 0.00 | 76 | 975.2 |
| 20260505221454 | 49 | 14 | 2.0 | 3.0 | 0.00 | 0.00 | 0.00 | 77 | 975.2 |
| 20260505220954 | 49 | 89 | 1.0 | 2.0 | 0.00 | 0.00 | 0.00 | 76 | 975.3 |
| 20260505215932 | 49 | 63 | 1.0 | 3.0 | 0.00 | 0.00 | 0.00 | 76 | 975.4 |
| 20260505215431 | 49 | 62 | 1.0 | 3.0 | 0.00 | 0.00 | 0.00 | 76 | 975.3 |
| 20260505214931 | 49 | 23 | 2.0 | 2.0 | 0.00 | 0.00 | 0.00 | 76 | 975.3 |
| 20260505214430 | 49 | 22 | 1.0 | 2.0 | 0.00 | 0.00 | 0.00 | 76 | 975.3 |
| 20260505213930 | 49 | 244 | 1.0 | 2.0 | 0.00 | 0.00 | 0.00 | 77 | 975.4 |
| 20260505212908 | 49 | 267 | 1.0 | 2.0 | 0.00 | 0.00 | 0.00 | 76 | 975.4 |
| 20260505212407 | 49 | 0 | 0.0 | 0.0 | 0.00 | 0.00 | 0.00 | 76 | 975.4 |
| 20260505211906 | 49 | 313 | 1.0 | 3.0 | 0.00 | 0.00 | 0.00 | 76 | 975.4 |